STARLINK-11330, 62011

Orbit data source: Space-Track

STARLINK-11330, 62011 is a payload satellite owned by SpaceX/Seattle (US) in LEO that was launched on Mon, 18 Nov 2024 UTC via an FALCON 9 launch vehicle from the Air Force Western Test Range (AFWTR). Payloads include a variety of satellites, spacecraft, and rockets equipped with specific instruments for various scientific and technological missions. These include communications satellites like Starlink; space stations such as the ISS; scientific satellites like the Hubble; Earth observation satellites from companies like Planet Labs, Umbra, and HawkEye 360; GPS; miniature CubeSats for education and research; and military/defense satellites.

Loading next visibility...
STARLINK-11330 details
Identifier
62011, 2024-213D
Orbit
LEO
Last TLE update7 hours ago
Origin
Flag of USSpaceX/Seattle (US)
ManufacturerSpaceX/Seattle
MissionOperational spacecraft
Bus & MotorSTARLINK V2M, Unknown motor
Mass730 kg wet, ~700 kg dry
Launch date (UTC)
2024-11-18 (1 month ago)
Launch vehicle
FALCON 9
Launch site
Air Force Western Test Range (AFWTR)
Object type
Payload
Rocket body
Debris
Shape & HBRUnknown
Radar Cross SectionLarge (>1 m²)

Expand to show TLE details & history

TLE from 7 hours ago
0 STARLINK-11330
1 62011U 24213D   24361.16416978 -.00001639  00000-0 -60165-5 0  9994
2 62011  53.1543  45.6959 0001455  48.2734 311.8411 15.76713253  6942
Epoch: 2024-12-26T03:56Z
Definitive object data (Epoch: 2024-12-26T03:56:24.268Z)
Latitude-0.00006°
Longitude-108.55276°
Altitude340.026 km
Speed7.706 km/s
True Right ascension03h 02m 47s
True Declination0° 00' 00"
Sunlit
Object was in full shadow at TLE epoch
Visualization TLE readout
Latitude-18.15391°
Longitude84.14782°
Altitude345.617 km
Speed7.701 km/s
Apparent Right ascension18h 30m 56s
Apparent Declination-38° 38' 26"
Sunlit
Object is in daylight
Visualization observer readout
Local Sidereal Time10:14:07
Azimuth106.975° ESE
Elevation-47.515°
Doppler factor1
Orbital elements
Apogee altitude341 km
Perigee altitude339.045 km
Semi-major axis6,718.16 km
Eccentricity0.0001455
Inclination53.1543°
RAAN45.6959°
Arg. of periapsis48.2734°
True anomaly311.82868°
Mean anomaly311.8411°
Eccentric anomaly311.83489°
Mean motion3.94156 °/min
BSTAR-0.0000060165
Orbital period91.33 mins
Loading maneuver chart data...
Loading historical data...
Loading historical data...
Loading historical data...
Loading historical data...
Loading historical data...
Loading historical data...
Loading historical data...

STARLINK-11330 Visibility forecast

Observer location: undefined°, undefined

Span
Click to sort rows by Start time (UTC) header in descending order
Start Az.
Max El. time (UTC)
Max El. Az.
Max El.
End time (UTC)
End Az.
4 mins2024-12-26 12:00:52.029Z342.553° N2024-12-26 12:02:52.029Z39.072° NE20.963°2024-12-26 12:04:52.029Z85.288° E
|